Wind_Speed
30 30 30 30 31 31 32 32 32 32 32 33 32 32 31 31 31 31 31 31 30 31 32 33 33 33 35 35 36 35 34 34 35 36 36 37 38 39 39 39 39 39 39 39
30 31 30 31 32 33 33 34 33 33 34 35 34 33 32 32 32 32 33 33 33 32 32 34 34 34 35 35 35 35 35 34 35 36 37 37 38 38 39 40 41 41 41 40
30 30 31 32 33 33 34 35 35 35 36 37 37 36 34 33 33 34 34 34 34 34 34 35 35 36 35 36 36 35 35 36 35 35 36 37 38 38 40 40 41 41 41 41
31 31 31 32 32 33 34 35 37 37 37 38 37 38 34 34 34 35 35 35 36 36 36 36 36 36 36 36 36 36 36 37 37 36 36 38 39 39 39 40 40 41 42 42
33 32 32 32 32 33 34 35 35 36 37 37 37 39 36 34 35 35 35 36 37 37 37 37 37 37 37 37 37 37 38 38 39 38 38 39 40 40 39 39 40 41 42 43
34 33 33 32 32 33 34 34 34 35 36 37 36 37 36 34 34 35 35 36 36 37 37 38 38 38 38 38 38 39 39 39 40 40 40 40 40 40 40 40 41 41 41 42
35 35 34 33 33 32 33 33 34 35 35 36 34 35 35 33 33 34 36 36 36 36 37 37 38 38 38 39 38 38 40 40 40 40 39 40 41 41 41 41 41 41 42 43
36 35 34 33 33 32 32 32 33 34 35 36 35 35 33 33 33 33 34 34 35 36 36 37 37 38 38 38 39 39 40 41 41 41 40 40 41 41 42 42 41 42 43 44
34 35 34 33 32 32 32 32 32 34 36 36 36 36 34 33 33 33 33 33 34 35 35 36 36 36 37 37 38 39 39 40 42 42 42 41 41 41 42 42 42 41 41 42
34 35 34 33 33 32 32 32 32 33 35 37 37 35 34 32 32 33 33 33 34 35 36 36 36 36 36 36 37 39 40 41 42 43 43 44 43 42 41 42 41 41 42 43
34 35 35 34 33 33 32 33 33 34 36 37 38 37 35 33 32 32 32 33 34 35 36 36 36 36 36 37 38 39 40 41 41 42 42 44 44 44 44 43 43 42 43 44
34 36 36 35 34 34 34 33 34 35 36 37 39 38 35 34 33 32 32 33 34 35 36 37 37 37 37 38 38 38 39 40 41 41 42 45 45 45 45 45 44 45 45 46
35 36 37 37 36 35 35 35 35 36 37 38 39 38 35 35 34 33 34 34 35 35 37 37 38 38 38 39 39 39 39 40 41 42 43 44 45 46 46 46 46 47 47 47
38 38 38 38 37 36 36 35 35 37 38 38 38 37 34 34 35 36 36 36 36 36 37 37 37 38 39 39 39 40 39 40 41 42 44 45 45 46 47 47 48 49 49 48
39 40 39 38 37 37 36 36 36 37 37 39 37 36 34 35 36 37 37 37 37 38 38 38 38 38 39 39 40 40 41 41 42 43 45 46 47 47 48 48 49 49 49 49
40 41 41 40 38 39 38 37 37 37 37 38 38 36 34 36 38 38 38 38 38 38 38 38 39 39 40 40 41 42 42 42 43 44 45 46 47 48 48 48 48 48 49 50
41 41 42 42 40 42 41 37 38 38 38 39 39 37 36 37 37 37 38 38 39 39 39 40 39 39 40 40 40 41 42 43 44 44 44 45 46 47 47 48 48 49 49 50
41 41 42 42 42 45 41 39 39 39 39 39 39 38 38 37 37 38 39 39 40 41 41 41 41 41 41 41 41 41 42 43 43 43 44 45 45 46 47 48 48 48 49 49
42 42 42 43 44 45 41 39 38 39 39 39 39 38 38 38 39 39 39 40 41 41 41 41 42 42 42 42 42 42 42 42 43 44 45 45 46 46 47 47 48 48 49 49
42 43 44 45 45 45 41 39 39 40 40 38 39 39 39 39 40 39 40 41 41 41 41 42 42 42 42 42 42 42 42 43 43 44 45 46 46 47 47 48 48 48 48 48
44 44 44 44 45 45 41 40 40 41 40 39 39 39 39 40 41 41 40 41 41 41 41 42 42 41 41 42 42 42 42 43 44 44 45 46 47 47 47 47 47 48 48 48
45 45 44 44 45 43 40 41 41 40 40 40 40 40 40 40 40 40 40 40 40 40 40 41 41 41 41 41 42 42 42 42 44 45 46 46 47 47 47 47 47 47 47 47
45 44 44 44 43 42 41 41 41 41 41 40 40 40 40 40 39 39 39 39 39 40 40 40 39 40 40 40 41 41 42 42 42 43 44 45 45 46 46 46 45 46 47 47
45 43 44 43 42 41 41 41 41 41 41 40 40 41 40 40 39 39 39 38 39 39 39 39 39 39 39 39 40 41 41 41 41 42 43 43 43 44 44 45 45 46 46 47
44 43 43 43 42 42 41 40 40 41 41 41 41 41 41 40 40 39 38 38 37 37 38 38 38 38 39 39 39 40 40 40 40 40 40 41 42 43 43 44 44 46 46 46
43 43 43 42 41 41 40 40 41 41 40 40 40 40 40 40 39 39 38 38 38 37 38 38 39 39 39 39 39 39 40 40 40 39 39 39 40 41 42 42 43 43 44 45
Wind_Direction
279 280 281 283 281 280 281 281 281 279 275 272 270 270 269 268 268 268 270 268 266 266 264 263 263 263 262 260 260 259 259 257 255 255 254 256 257 257 256 256 257 257 257 257
279 280 281 281 281 280 279 280 281 279 277 274 271 269 270 269 268 269 270 268 267 266 265 264 264 264 262 261 262 260 258 257 256 256 256 258 257 257 257 257 257 257 257 258
282 283 282 281 281 280 279 279 280 279 278 275 273 269 270 270 269 270 270 269 268 267 266 266 265 264 263 262 262 261 259 258 257 258 259 260 260 258 258 257 257 257 258 258
283 283 283 283 282 281 281 281 279 279 278 277 274 273 270 270 271 272 271 269 267 267 266 266 265 264 263 263 263 262 261 258 257 259 260 260 260 260 259 258 258 258 259 259
284 284 284 284 284 283 282 282 280 280 279 278 275 275 274 272 272 271 271 269 267 267 266 266 266 265 264 263 263 262 261 260 260 260 261 261 260 259 259 259 259 259 259 260
284 284 285 286 285 283 283 282 281 280 280 279 278 277 276 274 274 272 271 269 267 267 267 268 267 266 265 263 263 262 261 261 261 262 261 260 260 259 259 259 260 260 260 260
284 284 285 286 285 283 283 283 282 281 280 281 282 279 278 277 276 275 273 270 269 267 267 267 267 266 266 264 263 262 262 262 262 262 262 261 260 260 260 261 261 261 260 260
284 284 285 285 285 284 283 281 281 281 281 282 281 280 280 279 279 278 276 273 269 267 266 266 266 266 266 266 265 264 263 262 261 261 261 261 262 262 261 262 261 261 261 261
284 284 285 284 284 283 282 280 280 280 279 281 282 282 282 281 281 281 279 275 270 268 267 266 266 267 266 266 265 265 263 263 261 261 261 262 261 261 262 262 262 262 262 262
282 282 284 285 283 282 281 281 280 280 280 280 281 282 284 284 283 283 280 276 272 268 267 267 267 267 266 266 266 265 264 263 262 261 262 262 261 261 261 261 262 262 262 262
281 281 283 283 283 282 281 280 279 279 278 278 280 280 283 285 285 284 281 278 275 270 268 268 268 268 267 266 265 265 265 264 263 262 260 260 260 261 261 261 261 262 263 264
280 280 280 281 281 280 281 281 279 278 279 279 279 279 281 282 281 281 281 279 276 272 270 269 269 269 268 267 266 265 265 264 263 261 260 259 260 261 262 263 263 264 265 266
277 278 280 280 280 281 281 281 280 279 278 278 278 280 282 281 279 278 278 278 276 274 273 272 272 269 268 268 267 266 265 264 263 262 262 262 262 262 263 264 266 266 267 267
276 277 278 280 282 282 281 281 281 280 279 279 280 281 280 280 278 276 276 276 276 276 275 274 272 270 269 268 268 267 265 265 264 263 263 263 264 265 265 266 267 268 269 269
276 278 278 278 279 280 280 280 280 280 280 280 281 280 279 278 276 274 274 275 276 276 276 275 272 269 269 269 269 268 266 266 265 264 264 264 265 266 267 268 268 268 268 268
275 277 278 277 278 279 279 279 279 280 280 279 279 278 279 278 275 274 274 274 275 275 275 275 273 270 269 269 269 269 268 267 267 267 266 266 266 267 268 268 269 269 268 268
275 277 278 278 278 278 276 279 280 280 280 280 279 279 278 277 277 275 274 274 274 275 275 274 274 272 270 270 270 270 269 269 269 269 269 268 268 268 267 268 269 269 269 269
274 276 277 278 278 277 280 280 280 280 279 279 279 279 279 277 277 276 274 274 274 274 275 275 274 274 273 272 271 271 271 271 270 270 270 269 269 269 268 268 269 269 269 270
272 273 275 276 277 278 278 280 280 280 278 280 280 280 279 278 277 276 275 276 277 276 276 276 274 274 274 273 272 271 272 271 271 271 271 270 269 269 269 269 270 270 270 271
270 270 272 274 276 277 280 280 279 280 280 282 281 280 280 279 279 279 278 278 278 276 276 276 275 275 274 273 272 273 273 272 272 271 270 270 269 269 270 270 270 270 269 270
269 270 270 272 274 276 279 279 280 280 282 282 281 281 280 280 280 281 281 280 278 277 277 277 277 276 275 274 273 273 273 273 274 273 273 271 270 270 270 270 270 269 269 270
271 271 272 273 274 278 279 277 278 280 280 281 281 282 282 281 281 281 280 279 278 276 276 277 278 278 277 277 275 274 275 275 275 274 274 273 272 271 272 272 271 270 269 270
270 271 271 272 274 277 276 277 278 279 279 280 281 281 281 282 281 280 279 278 277 277 276 277 278 278 278 278 277 276 276 276 276 275 275 274 274 273 272 272 272 271 271 271
269 269 270 271 273 274 276 276 278 279 279 278 279 280 280 280 279 279 278 277 276 276 277 277 278 278 279 279 279 278 277 277 276 277 276 275 274 273 273 272 272 272 272 273
270 270 271 272 273 274 275 277 278 279 278 278 279 279 280 280 279 278 276 276 276 276 277 278 279 280 279 279 280 280 278 277 277 278 277 275 274 273 273 274 274 274 273 274
269 270 272 273 273 274 276 277 278 278 277 278 278 279 280 280 278 277 276 276 276 277 278 278 280 280 280 279 280 280 279 278 278 278 278 277 276 275 276 276 276 276 275 275
Height
5720 5720 5718 5718 5715 5714 5712 5710 5710 5709 5707 5706 5705 5706 5706 5705 5705 5704 5703 5703 5702 5702 5702 5702 5702 5702 5702 5702 5703 5703 5704 5705 5705 5706 5707 5709 5711 5711 5713 5714 5715 5716 5717 5718
5713 5712 5711 5709 5707 5705 5704 5702 5701 5700 5698 5696 5696 5697 5698 5697 5697 5696 5695 5694 5694 5694 5693 5693 5693 5693 5693 5694 5694 5695 5695 5696 5697 5698 5699 5700 5701 5702 5703 5704 5705 5706 5707 5708
5704 5704 5702 5700 5699 5697 5696 5694 5692 5690 5688 5686 5686 5687 5689 5689 5688 5687 5687 5686 5685 5685 5685 5685 5684 5685 5685 5685 5686 5686 5687 5688 5689 5689 5690 5690 5691 5692 5693 5694 5695 5696 5697 5698
5695 5695 5694 5692 5690 5688 5687 5685 5682 5680 5678 5676 5676 5674 5680 5679 5679 5678 5678 5676 5676 5675 5675 5675 5675 5675 5676 5676 5677 5678 5678 5679 5680 5680 5680 5681 5681 5682 5683 5684 5685 5686 5687 5688
5687 5687 5685 5683 5682 5679 5677 5675 5672 5670 5667 5666 5666 5664 5668 5669 5668 5668 5667 5666 5665 5665 5665 5665 5665 5665 5666 5666 5667 5668 5669 5669 5670 5670 5671 5671 5672 5672 5673 5674 5675 5675 5676 5678
5678 5677 5676 5674 5672 5670 5667 5665 5663 5660 5658 5656 5658 5655 5656 5658 5658 5658 5657 5656 5655 5655 5655 5654 5654 5655 5655 5656 5656 5657 5658 5659 5659 5660 5660 5661 5662 5662 5663 5664 5664 5665 5666 5667
5668 5667 5666 5665 5663 5661 5659 5657 5654 5650 5648 5648 5648 5646 5647 5648 5648 5647 5646 5646 5645 5645 5644 5644 5644 5644 5644 5645 5645 5646 5647 5648 5648 5649 5650 5650 5651 5652 5653 5653 5654 5654 5655 5656
5657 5657 5657 5655 5654 5652 5649 5647 5645 5642 5640 5639 5638 5636 5639 5639 5638 5637 5636 5635 5634 5634 5634 5633 5633 5633 5634 5634 5634 5635 5636 5636 5637 5638 5639 5639 5640 5641 5641 5642 5643 5643 5644 5644
5647 5647 5647 5645 5644 5642 5640 5638 5637 5634 5631 5629 5628 5628 5629 5629 5628 5626 5625 5624 5623 5623 5623 5623 5623 5623 5623 5623 5624 5624 5625 5626 5626 5626 5627 5628 5629 5629 5630 5630 5631 5632 5632 5633
5637 5636 5637 5635 5634 5632 5631 5630 5628 5625 5622 5620 5619 5619 5620 5620 5619 5617 5615 5613 5612 5612 5612 5612 5613 5613 5613 5613 5614 5614 5614 5614 5615 5616 5616 5617 5617 5617 5618 5618 5619 5620 5620 5621
5628 5626 5626 5625 5624 5623 5622 5621 5618 5616 5614 5611 5609 5612 5612 5611 5609 5607 5605 5603 5602 5602 5602 5602 5603 5603 5603 5603 5603 5603 5603 5603 5603 5604 5604 5605 5605 5605 5606 5606 5607 5608 5608 5608
5618 5616 5615 5615 5614 5612 5611 5610 5609 5607 5605 5602 5600 5604 5603 5601 5599 5597 5596 5594 5593 5592 5592 5592 5593 5593 5593 5592 5592 5591 5591 5592 5592 5592 5593 5593 5593 5594 5594 5594 5595 5595 5595 5595
5607 5606 5604 5603 5605 5603 5601 5600 5599 5597 5595 5593 5591 5594 5594 5591 5589 5587 5586 5585 5583 5583 5583 5582 5582 5582 5582 5581 5581 5580 5580 5580 5580 5581 5581 5581 5581 5582 5582 5583 5583 5582 5582 5582
5596 5595 5595 5595 5594 5592 5591 5590 5589 5586 5584 5583 5582 5583 5584 5581 5579 5577 5576 5575 5574 5573 5572 5571 5571 5571 5570 5570 5569 5569 5569 5569 5569 5569 5569 5569 5569 5569 5570 5570 5570 5569 5569 5569
5585 5584 5584 5583 5582 5580 5580 5579 5578 5576 5574 5572 5572 5572 5572 5570 5568 5567 5565 5564 5563 5562 5561 5560 5560 5559 5558 5558 5557 5557 5557 5557 5557 5557 5557 5557 5556 5556 5556 5556 5556 5556 5555 5555
5573 5572 5572 5571 5571 5568 5567 5568 5567 5565 5564 5562 5561 5561 5561 5558 5556 5556 5555 5554 5552 5551 5550 5549 5548 5548 5547 5546 5546 5545 5545 5545 5544 5544 5544 5543 5543 5543 5543 5542 5542 5542 5541 5541
5561 5561 5560 5559 5559 5555 5555 5559 5557 5555 5553 5552 5549 5551 5549 5547 5545 5544 5544 5542 5541 5540 5539 5538 5537 5536 5535 5534 5533 5533 5532 5532 5531 5531 5530 5530 5529 5529 5529 5528 5528 5527 5527 5526
5550 5549 5547 5546 5546 5542 5548 5548 5546 5543 5542 5541 5539 5538 5537 5536 5534 5533 5532 5530 5529 5528 5527 5526 5525 5524 5523 5522 5521 5520 5519 5519 5518 5518 5517 5517 5516 5515 5515 5514 5514 5513 5513 5512
5538 5537 5535 5534 5531 5530 5535 5536 5534 5532 5531 5531 5528 5527 5526 5524 5522 5522 5521 5519 5517 5516 5515 5513 5512 5511 5510 5509 5508 5507 5506 5506 5505 5504 5504 5503 5502 5501 5501 5500 5500 5499 5498 5498
5525 5524 5523 5521 5518 5518 5525 5525 5522 5519 5518 5521 5517 5515 5514 5512 5510 5511 5509 5507 5505 5503 5502 5501 5499 5498 5497 5496 5495 5494 5493 5492 5492 5491 5490 5489 5488 5487 5486 5486 5485 5484 5484 5483
5512 5510 5510 5508 5505 5506 5512 5511 5509 5508 5509 5508 5504 5502 5501 5500 5499 5498 5496 5494 5492 5491 5489 5488 5486 5485 5484 5483 5482 5481 5480 5479 5478 5476 5475 5474 5474 5473 5472 5471 5470 5470 5469 5469
5499 5498 5497 5496 5494 5498 5501 5498 5498 5497 5496 5493 5491 5490 5488 5487 5486 5484 5483 5481 5479 5478 5476 5475 5473 5472 5471 5469 5468 5467 5466 5465 5463 5462 5461 5460 5459 5458 5458 5457 5456 5455 5455 5454
5486 5487 5486 5485 5487 5489 5487 5486 5485 5483 5482 5481 5479 5478 5476 5475 5473 5472 5470 5469 5467 5465 5464 5462 5461 5460 5458 5456 5455 5454 5453 5451 5449 5448 5446 5445 5444 5444 5443 5442 5441 5441 5440 5440
5473 5474 5472 5472 5474 5475 5474 5473 5472 5471 5470 5468 5467 5466 5464 5463 5461 5460 5458 5456 5454 5453 5451 5450 5448 5447 5445 5443 5442 5440 5439 5437 5435 5434 5433 5431 5430 5429 5429 5428 5427 5426 5426 5425
5461 5460 5459 5459 5462 5462 5462 5461 5460 5459 5457 5456 5455 5453 5452 5450 5449 5447 5446 5444 5442 5441 5439 5437 5436 5434 5433 5431 5429 5427 5425 5424 5422 5421 5419 5418 5417 5416 5415 5414 5413 5412 5412 5410
5448 5448 5448 5448 5451 5449 5449 5448 5447 5445 5444 5443 5442 5441 5439 5438 5436 5435 5434 5432 5431 5429 5427 5426 5424 5422 5420 5418 5416 5414 5413 5411 5410 5409 5407 5405 5404 5403 5402 5401 5400 5398 5397 5396